HULIANWAN GAOGUI-01 (H*)

Last updated on Fri Oct 17 2025 00:02:52 GMT+0000 (Coordinated Universal Time)

1 59069U 24040A 25288.63488726 .00000142 00000+0 00000+0 0 9993 2 59069 0.0481 305.7829 0001594 338.4544 2.3977 1.00269866 4873
UTC large
Height (km)
Speed (km/s)
/
Latitude / Longitude
Inclination (degrees)
Orbital Period (minutes)
Azimuth
Elevation
Range (km)
Doppler Factor

Next 0 passes for location: London (51.5072 / 0.1276)

Sorry there are no passes over London.